STARLINK-2024 (47606 NORAD) Tracking and Keplerian Element Data

This shows tracking and keplerian element data for the satellite.

Feedback or suggestion? Click here.




ElementValue
Catalog47606
NameSTARLINK-2024
Epoch Orbit177
Epoch Day101.91668981
Epoch Year2021
RAAN157.532
Inclination53.0521
Eccentricity0.0004188
Argument of Perigee17.9705
Mean Anonmoly234.4651
Mean Motion15.62791255
Decay Rate0.0003318
L11 47606U 21009BL 21101.91668981 .00033180 00000-0 36608-3 0 9999
L22 47606 53.0521 157.5320 0004188 17.9705 234.4651 15.62791255 1777

Live tracking and technical data element details for STARLINK-2024 (NORAD 47606). STARLINK-2024 can be tracked NOW for your location showing map with azimuth and elevation plus other details from your city location.

Track the satellite on the map from your city or location and see movement details for azimuth, elevation, latitude, longitude, range, height, and movement on the map or in text.







IsCatalogInMostPopularTable: catalog: 47606, numindb: 18
Update: records affected: 1



GetName: 47606 STARLINK-2024

Hit Count: updated at: Tue, 13 Apr 2021 04:58:35 GMT